Simultaneous Nadir Overpasses (SNOs) Predictions

Prediction of SNOs between NOAA-20 and TERRA Satellite Orbit:

Table of predicted SNOs for the next 14.0 days since TLE Epoch: 7/20/2024
Index Date (NOAA-20) Time (NOAA-20) Lat,Lon (NOAA-20) SZA (NOAA-20 ) Date (TERRA) Time (TERRA) Lat,Lon (TERRA) SZA (TERRA ) Distance(km) Time Diff (sec)
1 07/20/2024 04:51:09 72.37, 99.68 51.97 07/20/2024 04:51:10 72.37, 99.71 51.97 1.28 1
2 07/20/2024 05:41:48 -72.14, -92.57 128.27 07/20/2024 05:40:35 -72.20, -92.93 128.18 13.82 73
3 07/22/2024 16:03:36 72.42, -68.54 52.51 07/22/2024 16:04:15 72.43, -68.48 52.51 2.62 39
4 07/22/2024 16:54:18 -72.34, 98.93 127.57 07/22/2024 16:53:39 -72.31, 98.96 127.59 3.11 39
5 07/25/2024 03:16:07 72.68, 122.82 53.32 07/25/2024 03:17:18 72.56, 123.44 53.15 24.58 71
6 07/25/2024 04:06:45 -72.39, -69.29 126.99 07/25/2024 04:06:43 -72.39, -69.21 127.00 2.54 2
7 07/25/2024 04:57:21 71.87, 99.03 52.45 07/25/2024 04:56:11 71.96, 97.71 52.63 47.05 70
8 07/27/2024 15:19:11 -72.41, 122.58 126.42 07/27/2024 15:19:47 -72.42, 122.53 126.42 1.93 36
9 07/27/2024 16:09:56 72.35, -69.99 53.52 07/27/2024 16:09:09 72.31, -69.99 53.50 3.62 47
10 07/30/2024 02:31:37 -72.48, -45.68 125.76 07/30/2024 02:32:49 -72.45, -45.71 125.80 2.96 72
11 07/30/2024 03:22:21 72.37, 121.84 54.14 07/30/2024 03:22:11 72.35, 121.78 54.12 3.32 10
12 07/30/2024 04:12:52 -71.71, -69.59 126.57 07/30/2024 04:11:44 -71.74, -71.61 126.41 70.44 68
13 08/01/2024 14:34:48 72.46, -46.44 54.84 08/01/2024 14:35:12 72.45, -46.35 54.82 3.17 24
14 08/01/2024 15:25:29 -72.31, 121.17 125.32 08/01/2024 15:24:36 -72.32, 121.09 125.28 3.38 53



Historial Predications of SNOs between NOAA-20 and TERRA
